Location: Recife
(8.0585°S, 34.8848°W)
Time: 21:34:01
(UTC-03:00)

Vanguard 1 Rocket - Pass Details

Date: 20 April 2026
Orbit: 655 x 4212 km, 34.3° (Epoch: 12 May)

Event Time Altitude Azimuth Distance (km) Brightness Sun altitude
Rises 17:41:47 0° 253° (WSW) 5,534 12.6 -7.3°
Reaches altitude 10° 17:44:59 10° 259° (W) 4,921 12.4 -8.1°
Maximum altitude 17:59:42 46° 327° (NNW) 4,122 11.0 -11.7°
Drops below altitude 10° 18:23:08 10° 34° (NE) 7,399 11.8 -17.4°
Sets 18:29:40 0° 40° (NE) 8,408 12.0 -19.0°
